Date,TemperatureHighF,TemperatureAvgF,TemperatureLowF,DewpointHighF,DewpointAvgF,DewpointLowF,HumidityHigh,HumidityAvg,HumidityLow,PressureMaxIn,PressureMinIn,WindSpeedMaxMPH,WindSpeedAvgMPH,GustSpeedMaxMPH,PrecipitationSumIn
2013-1-1,46,44,43,45,42,39,96,90,84,29.58,29.03,3,2,10,0.00
2013-1-2,52,48,44,52,47,43,99,98,92,29.81,29.58,2,1,6,0.00
2013-1-3,53,52,50,53,51,49,99,98,94,30.10,29.81,4,1,9,0.00
2013-1-4,51,48,45,50,48,45,99,97,91,30.14,30.09,0,0,2,0.00
2013-1-5,51,48,45,50,47,44,99,98,96,30.09,29.99,1,0,3,0.00
2013-1-6,53,48,45,53,48,44,99,98,91,30.03,29.85,0,0,2,0.00
2013-1-7,51,48,45,50,48,44,99,99,95,29.85,29.68,1,0,2,0.00
2013-1-8,52,48,44,52,48,44,99,99,99,29.78,29.65,1,0,3,0.05
2013-1-9,44,41,37,44,40,37,99,99,99,29.78,29.63,1,0,4,0.00
2013-1-10,38,36,35,38,36,34,99,99,99,29.63,29.50,0,0,2,0.00
2013-1-11,42,39,37,41,39,37,99,99,99,29.62,29.47,2,0,4,0.17
2013-1-12,41,38,34,40,35,31,99,89,69,29.63,29.43,2,1,5,0.11
2013-1-13,38,35,32,36,34,32,99,97,85,29.73,29.61,1,0,2,0.09
2013-1-14,42,39,35,42,38,35,99,95,85,29.59,29.27,4,1,8,0.66
2013-1-15,39,35,32,35,32,30,98,92,83,29.44,29.32,2,0,6,0.00
2013-1-16,33,31,30,32,30,29,99,96,93,29.54,29.38,2,0,5,0.00
2013-1-17,36,34,32,34,32,31,99,95,86,29.55,29.32,3,2,9,0.02
2013-1-18,35,32,30,32,30,28,99,93,85,29.32,28.99,3,2,8,0.00
2013-1-19,34,33,31,34,31,28,99,92,87,29.17,29.01,2,0,8,0.01
2013-1-20,34,34,33,32,32,32,95,92,90,28.95,28.94,1,0,2,0.02
2013-1-21,35,33,33,34,33,32,99,99,98,28.97,28.85,2,0,4,0.21
2013-1-22,37,35,33,35,32,28,99,91,76,29.34,28.97,2,0,5,0.02
2013-1-23,36,35,33,36,33,30,99,93,83,29.43,29.34,2,0,5,0.01
2013-1-24,38,34,31,32,31,27,92,87,79,29.65,29.44,2,0,5,0.00
2013-1-25,35,32,29,34,31,27,99,94,86,29.60,28.99,3,2,9,0.39
2013-1-26,45,41,34,45,41,34,99,98,89,29.28,28.77,2,0,8,0.86
2013-1-27,49,44,39,49,39,33,99,84,63,29.02,28.60,4,2,11,0.12
2013-1-28,51,44,39,47,39,33,97,82,63,29.14,28.75,4,1,13,0.02
2013-1-29,57,50,46,55,47,41,99,89,68,29.08,28.81,3,1,11,0.07
2013-1-30,49,44,44,46,35,-100,93,79,59,29.44,28.92,4,-40,12,0.11
2013-1-31,48,46,43,43,40,38,97,80,68,29.41,29.13,4,2,10,0.12
2013-2-1,46,43,40,42,38,35,99,85,71,29.32,28.97,3,1,11,0.08
2013-2-2,40,38,35,37,32,30,87,79,67,29.80,29.32,2,1,11,0.00
2013-2-3,50,45,36,48,43,33,99,95,82,29.76,29.33,4,1,9,0.11
2013-2-4,50,45,37,49,41,36,99,84,72,29.43,29.14,4,3,11,0.17
2013-2-5,44,40,36,43,37,32,99,89,77,29.14,28.81,5,3,14,0.32
2013-2-6,43,41,40,41,35,31,95,79,69,29.71,29.01,4,3,13,0.02
2013-2-7,43,40,38,40,37,34,99,91,83,29.73,29.55,2,0,5,0.04
2013-2-8,43,41,38,42,40,37,99,96,90,29.75,29.64,2,1,5,0.02
2013-2-9,40,39,37,40,39,37,99,99,94,29.74,29.34,2,1,4,0.14
2013-2-10,40,39,38,40,39,38,99,99,99,29.34,28.81,2,1,5,0.24
2013-2-17,44,41,39,36,35,34,88,77,70,29.64,29.62,2,0,5,0.00
2013-2-18,45,40,37,37,36,34,94,84,70,29.68,29.64,3,1,8,0.00
2013-2-19,43,37,32,40,36,32,99,95,84,29.68,29.62,2,0,3,0.00
2013-2-20,40,37,34,39,33,26,99,87,72,29.82,29.68,2,1,5,0.01
2013-2-21,39,35,33,27,24,22,76,63,53,29.85,29.78,3,1,7,0.00
2013-2-22,37,35,33,28,24,22,72,64,59,29.80,29.76,2,0,7,0.00
2013-2-24,35,35,34,31,31,30,87,84,83,29.98,29.98,1,0,2,0.00
2013-2-25,44,39,34,38,35,30,90,84,77,30.10,29.97,2,1,6,0.00
2013-2-26,43,41,39,38,36,34,91,84,79,30.22,30.08,1,0,2,0.00
2013-2-27,43,39,36,38,35,33,98,86,75,30.22,30.14,1,0,3,0.00
2013-2-28,41,37,33,40,36,33,99,97,90,30.14,30.02,1,0,4,0.00
2013-3-1,40,40,40,40,40,40,99,99,99,30.05,30.05,0,0,0,0.00
2013-3-2,45,39,32,42,36,29,98,90,81,30.01,29.84,2,0,4,0.00
2013-3-3,48,41,35,39,37,35,99,85,68,29.84,29.65,2,0,5,0.01
2013-3-4,46,42,37,36,35,34,91,76,62,29.65,29.29,4,2,9,0.00
2013-3-5,51,42,35,43,38,34,99,87,71,29.29,29.14,2,1,7,0.00
2013-3-6,50,44,40,43,41,39,98,91,79,29.15,29.10,2,1,5,0.02
2013-3-7,50,45,42,49,44,42,99,96,81,29.10,28.94,2,0,5,0.17
2013-3-8,47,44,42,46,43,42,99,98,92,29.14,28.95,2,0,5,0.21
2013-3-9,42,40,37,42,40,36,99,99,98,29.31,29.14,2,0,4,0.21
2013-3-10,39,34,30,36,23,-100,99,73,44,29.49,29.31,4,-41,10,0.09
2013-3-11,35,31,28,27,21,17,92,68,48,29.57,29.49,4,1,8,0.01
2013-3-12,41,34,27,37,27,20,92,74,62,29.57,29.44,4,2,9,0.00
2013-3-13,44,38,33,37,32,29,91,79,63,29.56,29.42,4,1,10,0.00
2013-3-14,45,39,31,39,34,27,94,84,70,29.58,29.34,2,0,4,0.02
2013-3-15,48,42,39,46,41,38,99,97,90,29.31,28.94,2,0,4,0.26
2013-3-16,45,41,39,44,40,39,99,96,86,28.94,28.78,2,0,4,0.28
2013-3-17,46,40,36,41,38,36,99,96,75,28.78,28.71,2,0,4,0.20
2013-3-18,45,38,34,41,36,33,99,91,80,28.96,28.74,2,0,5,0.02
2013-3-19,44,39,31,38,35,29,97,85,76,29.10,28.96,2,0,4,0.01
2013-3-20,43,39,35,36,34,33,96,83,69,29.55,29.10,1,0,4,0.00
2013-3-21,42,38,33,33,30,29,90,75,62,29.57,29.39,4,2,8,0.00
2013-3-22,36,34,33,34,34,32,99,98,86,29.40,29.29,4,2,11,0.30
2013-4-14,61,60,60,54,50,48,79,70,65,29.24,29.22,2,1,4,0.01
2013-6-14,64,58,55,58,54,52,99,89,70,29.44,29.18,2,1,4,0.31
2013-6-15,1023,0,200,100,100,100,2,2,2,28.45,28.45,1,1,2,0.32
2013-6-16,60,46,55,100,62,52,87,69,14,29.46,29.20,0,0,2,0.00
2013-6-17,69,69,68,53,53,53,59,58,57,29.56,29.56,2,2,4,0.00
2013-6-18,56,56,56,51,51,51,82,82,82,29.55,29.55,1,1,3,63.45
2013-7-11,69,63,59,62,59,56,90,86,79,29.89,29.83,1,0,3,0.00
2013-7-12,67,67,67,64,64,64,89,89,89,29.83,29.83,0,0,2,0.00
2013-7-13,79,75,63,67,65,62,99,72,57,29.85,29.83,2,1,4,0.00
2013-7-14,73,67,60,63,61,58,99,82,63,29.86,29.83,2,1,4,0.00
2013-7-15,1046,48,59,100,70,58,99,68,8,29.80,3.50,10,3,51,0.00
2013-7-16,76,76,76,63,63,63,63,63,63,29.80,29.80,0,0,2,64.43
2013-7-17,79,75,63,65,64,63,99,72,62,29.85,29.81,1,0,3,64.43
2013-7-18,1046,70,63,100,71,63,99,70,2,32.31,3.50,11,1,52,64.51
2013-7-19,1046,62,77,100,74,67,72,59,10,32.29,3.50,12,3,55,64.39
2013-7-20,1046,32,79,100,86,64,61,28,2,29.76,3.50,68,18,68,0.00
2013-7-21,72,67,63,62,60,58,90,78,67,29.74,29.64,2,1,6,64.43